Change the Weather History Date:

Saturday, June 22, 2013

  Actual Average Record
Temperature  
Mean Temperature 78 °F -  
Max Temperature 91 °F 81 °F 93 °F (1983)
Min Temperature 66 °F 57 °F 46 °F (1958)
Cooling Degree Days 13    
Growing Degree Days 28 (Base 50)    
Moisture  
Dew Point 68 °F    
Average Humidity 70    
Maximum Humidity 90    
Minimum Humidity 47    
Precipitation  
Precipitation 0.11 in - - ()
Sea Level Pressure  
Sea Level Pressure 29.92 in    
Wind  
Wind Speed 10 mph (South)    
Max Wind Speed 23 mph    
Max Gust Speed 30 mph    
Visibility 10 miles    
Events Rain    
Averages and records for this station are not official NWS values.
T = Trace of Precipitation, MM = Missing Value Source: NWS Daily Summary

Daily Weather History Graph

Daily Weather History Graph

Search for Another Location

Airport or City:

Trip Planner

Search our weather history database for the weather conditions in past years. The results will help you decide how hot, cold, wet, or windy it might be!

Date:

Astronomy

Jun. 22, 2013 Rise Set
Actual Time 5:36 AM CDT 8:54 PM CDT
Civil Twilight 5:01 AM CDT 9:28 PM CDT
Nautical Twilight 4:16 AM CDT 10:14 PM CDT
Astronomical Twilight 3:20 AM CDT 11:09 PM CDT
Moon 8:08 PM CDT (6/22) 4:50 AM CDT (6/22)
Length of Visible Light 16h 27m
Length of Day
15h 17m
Waxing Gibbous, 99% of the Moon is Illuminated
Jun 22
Waxing Gibbous
Jun 23
Full
Jun 29
Last Quarter
Jul 8
New
Jul 15
First Quarter

Hourly Weather History & Observations

Time (CDT) Temp. Heat Index Dew Point Humidity Pressure Visibility Wind Dir Wind Speed Gust Speed Precip Events Conditions
12:15 AM 79.3 °F - 71.6 °F 77% 29.89 in 10.0 mi SE 10.4 mph - N/A   Clear
12:35 AM 77.9 °F - 71.6 °F 81% 29.89 in 10.0 mi SSE 8.1 mph - N/A   Clear
12:55 AM 78.8 °F - 71.2 °F 78% 29.88 in 10.0 mi SSE 11.5 mph - N/A   Clear
1:15 AM 78.3 °F - 70.9 °F 78% 29.89 in 10.0 mi South 9.2 mph - N/A   Clear
1:35 AM 77.5 °F - 70.7 °F 79% 29.91 in 10.0 mi South 4.6 mph - N/A   Clear
1:55 AM 77.0 °F - 70.7 °F 81% 29.92 in 10.0 mi Calm Calm - N/A   Clear
2:15 AM 77.0 °F - 70.5 °F 80% 29.91 in 10.0 mi SSW 6.9 mph - N/A   Clear
2:35 AM 77.0 °F - 70.2 °F 79% 29.91 in 10.0 mi SSW 5.8 mph - N/A   Clear
2:55 AM 77.4 °F - 69.4 °F 76% 29.92 in 10.0 mi SSW 8.1 mph - N/A   Clear
3:15 AM 77.9 °F - 68.9 °F 74% 29.91 in 10.0 mi SSW 10.4 mph - N/A   Clear
3:35 AM 77.5 °F - 68.9 °F 75% 29.93 in 10.0 mi WSW 6.9 mph - N/A   Clear
3:55 AM 77.2 °F - 66.4 °F 69% 29.94 in 10.0 mi North 12.7 mph 16.1 mph N/A   Mostly Cloudy
4:15 AM 70.7 °F - 62.2 °F 75% 29.94 in 10.0 mi NNE 9.2 mph - N/A   Overcast
4:35 AM 69.8 °F - 61.3 °F 74% 29.94 in 10.0 mi NNE 5.8 mph - N/A   Overcast
4:55 AM 69.6 °F - 61.5 °F 75% 29.97 in 7.0 mi North 9.2 mph - 0.08 in Rain Heavy Rain
5:15 AM 67.6 °F - 62.6 °F 84% 29.97 in 10.0 mi NNW 8.1 mph - 0.01 in Rain Light Rain
5:35 AM 67.3 °F - 62.8 °F 85% 30.01 in 10.0 mi NW 13.8 mph - 0.02 in Rain Light Rain
5:55 AM 66.7 °F - 62.2 °F 85% 30.01 in 10.0 mi NNW 11.5 mph 17.3 mph 0.03 in   Mostly Cloudy
6:15 AM 66.4 °F - 62.4 °F 87% 29.99 in 10.0 mi North 11.5 mph - N/A   Scattered Clouds
6:35 AM 66.6 °F - 62.6 °F 87% 29.94 in 10.0 mi North 10.4 mph - N/A   Clear
6:55 AM 66.6 °F - 62.8 °F 88% 29.92 in 10.0 mi NNE 10.4 mph - N/A   Clear
7:15 AM 66.7 °F - 63.5 °F 89% 29.93 in 10.0 mi NE 11.5 mph 16.1 mph N/A   Clear
7:35 AM 66.6 °F - 63.5 °F 90% 29.97 in 10.0 mi NE 5.8 mph - N/A   Clear
7:55 AM 66.7 °F - 63.7 °F 90% 29.97 in 10.0 mi NE 6.9 mph - N/A   Scattered Clouds
8:15 AM 67.3 °F - 64.0 °F 89% 29.99 in 10.0 mi ENE 8.1 mph - N/A   Scattered Clouds
8:35 AM 68.0 °F - 64.4 °F 88% 29.99 in 10.0 mi ENE 10.4 mph - N/A   Scattered Clouds
8:55 AM 68.2 °F - 65.1 °F 90% 29.99 in 10.0 mi East 9.2 mph - N/A   Overcast
9:15 AM 68.9 °F - 65.5 °F 89% 30.00 in 10.0 mi ENE 6.9 mph - N/A   Overcast
9:55 AM 71.8 °F - 66.9 °F 85% 30.00 in 10.0 mi ENE 3.5 mph - N/A   Overcast
10:15 AM 72.7 °F - 68.0 °F 85% 30.00 in 10.0 mi East 4.6 mph - N/A   Overcast
10:35 AM 74.3 °F - 68.5 °F 82% 30.01 in 10.0 mi Calm Calm - N/A   Overcast
10:55 AM 74.3 °F - 69.1 °F 84% 30.02 in 10.0 mi Calm Calm - N/A   Mostly Cloudy
11:15 AM 74.7 °F - 69.3 °F 83% 30.03 in 10.0 mi SW 4.6 mph - N/A   Mostly Cloudy
11:35 AM 75.9 °F - 69.6 °F 81% 30.02 in 10.0 mi SSW 8.1 mph - N/A   Scattered Clouds
11:55 AM 76.3 °F - 69.8 °F 80% 30.01 in 10.0 mi SSW 8.1 mph - N/A   Clear
12:15 PM 79.5 °F - 69.6 °F 72% 29.98 in 10.0 mi South 8.1 mph - N/A   Clear
12:35 PM 81.1 °F 84.7 °F 70.0 °F 69% 29.92 in 10.0 mi SSE 13.8 mph - N/A   Clear
12:55 PM 81.7 °F 84.9 °F 68.9 °F 65% 29.88 in 10.0 mi SSE 23.0 mph 26.5 mph N/A   Clear
1:15 PM 83.3 °F 86.6 °F 68.7 °F 61% 29.86 in 10.0 mi SSE 23.0 mph 29.9 mph N/A   Clear
1:35 PM 84.6 °F 88.2 °F 68.9 °F 59% 29.87 in 10.0 mi SE 18.4 mph 25.3 mph N/A   Clear
1:55 PM 85.8 °F 89.7 °F 68.9 °F 57% 29.89 in 10.0 mi SSE 18.4 mph 26.5 mph N/A   Clear
2:15 PM 86.5 °F 90.0 °F 68.0 °F 54% 29.89 in 10.0 mi SSE 19.6 mph 25.3 mph N/A   Clear
2:35 PM 87.3 °F 89.8 °F 66.7 °F 50% 29.88 in 10.0 mi SSE 21.9 mph 26.5 mph N/A   Clear
2:55 PM 88.2 °F 91.3 °F 67.1 °F 50% 29.89 in 10.0 mi South 23.0 mph 26.5 mph N/A   Clear
3:15 PM 88.7 °F 92.6 °F 68.7 °F 51% 29.88 in 10.0 mi South 20.7 mph 25.3 mph N/A   Clear
3:35 PM 89.8 °F 93.8 °F 68.4 °F 49% 29.89 in 10.0 mi South 18.4 mph 25.3 mph N/A   Clear
3:55 PM 90.0 °F 95.0 °F 69.4 °F 51% 29.89 in 10.0 mi South 15.0 mph 23.0 mph N/A   Clear
4:15 PM 90.5 °F 94.6 °F 68.5 °F 48% 29.89 in 10.0 mi South 15.0 mph 25.3 mph N/A   Clear
4:35 PM 90.5 °F 95.5 °F 69.3 °F 50% 29.89 in 10.0 mi South 13.8 mph 20.7 mph N/A   Clear
4:55 PM 90.5 °F 95.5 °F 69.4 °F 50% 29.89 in 10.0 mi SSW 15.0 mph 24.2 mph N/A   Scattered Clouds
5:15 PM 90.9 °F 94.8 °F 68.0 °F 47% 29.89 in 10.0 mi SW 16.1 mph 19.6 mph N/A   Scattered Clouds
5:35 PM 90.5 °F 94.6 °F 68.5 °F 48% 29.88 in 10.0 mi SSW 11.5 mph - N/A   Clear
5:55 PM 89.4 °F 93.5 °F 68.4 °F 50% 29.87 in 10.0 mi South 12.7 mph - N/A   Clear
6:15 PM 90.3 °F 94.7 °F 69.1 °F 49% 29.87 in 10.0 mi South 13.8 mph - N/A   Clear
6:35 PM 89.4 °F 93.1 °F 68.0 °F 49% 29.87 in 10.0 mi SSW 11.5 mph - N/A   Clear
6:55 PM 87.8 °F 91.4 °F 68.4 °F 52% 29.87 in 10.0 mi SSW 11.5 mph - N/A   Clear
7:15 PM 86.7 °F 90.6 °F 68.9 °F 55% 29.87 in 10.0 mi SSW 9.2 mph - N/A   Clear
7:35 PM 86.9 °F 91.0 °F 69.1 °F 55% 29.86 in 10.0 mi South 11.5 mph - N/A   Clear
7:55 PM 85.8 °F 90.1 °F 69.6 °F 58% 29.86 in 10.0 mi South 11.5 mph 16.1 mph N/A   Scattered Clouds
8:15 PM 85.3 °F 89.4 °F 69.4 °F 59% 29.85 in 10.0 mi South 13.8 mph - N/A   Scattered Clouds
8:35 PM 84.4 °F 88.5 °F 69.8 °F 61% 29.85 in 10.0 mi South 10.4 mph - N/A   Scattered Clouds
8:55 PM 83.5 °F 87.7 °F 70.0 °F 64% 29.86 in 10.0 mi South 8.1 mph - N/A   Clear
9:15 PM 82.6 °F 86.6 °F 70.2 °F 66% 29.86 in 10.0 mi South 10.4 mph - N/A   Clear
9:35 PM 82.4 °F 86.5 °F 70.3 °F 67% 29.87 in 10.0 mi South 10.4 mph - N/A   Clear
9:55 PM 82.2 °F 86.2 °F 70.2 °F 67% 29.88 in 10.0 mi South 10.4 mph - N/A   Clear
10:15 PM 82.0 °F 85.9 °F 70.0 °F 67% 29.89 in 10.0 mi SSW 8.1 mph - N/A   Scattered Clouds
10:35 PM 81.5 °F 85.1 °F 70.0 °F 68% 29.88 in 10.0 mi South 9.2 mph - N/A   Scattered Clouds
10:55 PM 80.8 °F 84.1 °F 69.8 °F 69% 29.87 in 10.0 mi South 12.7 mph - N/A   Scattered Clouds
11:15 PM 80.8 °F 83.8 °F 69.1 °F 67% 29.87 in 10.0 mi South 13.8 mph - N/A   Clear
11:35 PM 80.6 °F 83.5 °F 68.9 °F 67% 29.88 in 10.0 mi South 15.0 mph 20.7 mph N/A   Clear
11:55 PM 80.6 °F 83.4 °F 68.4 °F 66% 29.88 in 10.0 mi South 13.8 mph - N/A   Clear